Location: Penzberg
(47.7615°N, 11.3159°E)
Time: 02:06:50
(UTC+01:00)

Amateur Radio Satellites - All Passes

Search period start: 19 November 2017 01:36
Search period end: 20 November 2017 01:36
Location: Penzberg, 47.7615°N, 11.3159°E

Satellite Date Start Highest point End Downlink Frequencies (MHz)
Time Altitude Azimuth
BUGSAT 1 19 Nov 01:37:24 01:41:29 81° 285° (WNW) 01:45:30 437.445
SO-50 19 Nov 01:54:03 01:55:57 12° 342° (NNW) 01:57:54 436.795
MOZHAYETS 4 19 Nov 02:03:15 02:07:37 46° 70° (ENE) 02:12:00
RS-15 19 Nov 02:08:18 02:19:54 47° 30° (NNE) 02:30:53 29.354- 29.394
CUBESAT XI-V 19 Nov 02:09:01 02:11:42 15° 58° (ENE) 02:14:22 437.345
DUCHIFAT 1 19 Nov 02:10:21 02:12:13 13° 302° (WNW) 02:14:03 145.980
Oscar 19 19 Nov 02:10:27 02:15:38 85° 286° (WNW) 02:20:48 437.125/150
Gurwin Techsat 1B 19 Nov 02:12:16 02:17:37 74° 103° (ESE) 02:22:56 435.225
PCSat 19 Nov 02:16:32 02:21:46 48° 312° (NW) 02:27:02 145.827
DX 1 19 Nov 02:17:56 02:20:50 17° 269° (W) 02:23:46 434.975-435.025
nSIGHT-1 19 Nov 02:23:46 02:26:56 52° 15° (NNE) 02:30:04 .
AO-7 19 Nov 02:35:01 02:41:30 24° 91° (E) 02:47:56 .
BEESAT 19 Nov 02:52:23 02:57:09 75° 257° (WSW) 03:01:57 436.000
ISS 19 Nov 02:58:28 03:01:43 67° 19° (NNE) 03:04:59 437.550
ITUPSAT 1 19 Nov 03:00:07 03:04:53 65° 258° (WSW) 03:09:40 437.325
M-CUBED/EXP-1 PRIME 19 Nov 03:11:04 03:15:31 71° 108° (ESE) 03:20:08 437.505
BEESAT 3 19 Nov 03:24:47 03:28:28 36° 119° (ESE) 03:32:11 437.485
MOZHAYETS 4 19 Nov 03:41:29 03:45:00 22° 268° (W) 03:48:32
CUBESAT XI-V 19 Nov 03:43:54 03:48:29 76° 258° (WSW) 03:53:07 437.345
Oscar 19 19 Nov 03:51:24 03:54:12 15° 305° (NW) 03:56:59 437.125/150
Gurwin Techsat 1B 19 Nov 03:53:16 03:57:00 20° 303° (WNW) 04:00:43 435.225
ITAMSAT 1 19 Nov 03:56:36 04:01:47 60° 102° (ESE) 04:06:54 435.822/435.867
nSIGHT-1 19 Nov 04:00:05 04:03:08 41° 213° (SSW) 04:06:09 .
PCSat 19 Nov 04:03:27 04:06:32 15° 335° (NNW) 04:09:38 145.827
DOVE 4 19 Nov 04:06:38 04:10:01 17° 87° (E) 04:13:18 437.250
KKS-1 19 Nov 04:15:38 04:20:03 62° 72° (ENE) 04:24:30 437.445
RS-15 19 Nov 04:21:31 04:33:27 78° 238° (WSW) 04:44:42 29.354- 29.394
YUBILEINY 19 Nov 04:25:11 04:31:20 22° 76° (ENE) 04:37:29 435.215
AO-7 19 Nov 04:26:49 04:35:12 85° 292° (WNW) 04:43:35 .
BEESAT 2 19 Nov 04:29:06 04:32:59 49° 122° (ESE) 04:36:56 435.950
ISS 19 Nov 04:35:12 04:38:01 27° 218° (SW) 04:40:49 437.550
M-CUBED/EXP-1 PRIME 19 Nov 04:46:29 04:49:27 18° 305° (NW) 04:52:30 437.505
STARS 19 Nov 04:47:58 04:52:18 55° 71° (ENE) 04:56:40 437.465
BEESAT 3 19 Nov 05:02:28 05:06:03 31° 318° (NW) 05:09:39 437.485
STRAND 1 19 Nov 05:10:36 05:13:39 16° 56° (NE) 05:16:41 437.568
CUTE-I 19 Nov 05:10:40 05:12:50 12° 86° (E) 05:14:59 437.470
SO-50 19 Nov 05:17:13 05:20:44 21° 32° (NNE) 05:24:16 436.795
LilacSat-2 19 Nov 05:18:28 05:20:36 14° 90° (E) 05:22:43 437.200
XW-2C 19 Nov 05:20:05 05:22:06 14° 90° (E) 05:24:06 145.795 - 145.815
AO-85 19 Nov 05:26:49 05:30:43 75° 124° (SE) 05:34:49 145.980
XW-2F 19 Nov 05:32:56 05:35:33 18° 92° (E) 05:38:10 145.980 - 146.000
HO-68 19 Nov 05:33:10 05:34:39 11° 82° (E) 05:36:07 435.675
ITAMSAT 1 19 Nov 05:36:49 05:40:50 23° 301° (WNW) 05:44:51 435.822/435.867
DOVE 4 19 Nov 05:42:59 05:48:16 74° 286° (WNW) 05:53:19 437.250
KKS-1 19 Nov 05:54:14 05:57:01 16° 270° (W) 05:59:48 437.445
KAITUO 1B 19 Nov 06:05:06 06:08:28 31° 96° (E) 06:11:51 145.475/437.950
BEESAT 2 19 Nov 06:07:32 06:10:57 25° 322° (NW) 06:14:23 435.950
XW-2D 19 Nov 06:12:40 06:16:25 54° 100° (E) 06:20:08 145.860 - 145.880
YUBILEINY 19 Nov 06:18:07 06:26:53 90° 91° (E) 06:35:46 435.215
AO-7 19 Nov 06:20:33 06:26:55 25° 313° (NW) 06:33:19 .
STARS 19 Nov 06:26:00 06:28:58 18° 269° (W) 06:31:58 437.465
CUBEBUG 2 19 Nov 06:26:21 06:27:34 11° 87° (E) 06:28:48 437.445
XW-2B 19 Nov 06:27:22 06:31:10 77° 103° (ESE) 06:34:58 145.730 - 145.750
SEEDS 19 Nov 06:33:24 06:35:50 15° 89° (E) 06:38:14 437.485
FO-29 19 Nov 06:35:36 06:41:17 30° 56° (ENE) 06:47:28 435.910
RS-15 19 Nov 06:35:46 06:43:46 22° 262° (W) 06:51:33 29.354- 29.394
STRAND 1 19 Nov 06:46:57 06:52:08 89° 263° (W) 06:57:19 437.568
CUTE-I 19 Nov 06:48:18 06:53:43 82° 104° (ESE) 06:59:05 437.470
LilacSat-2 19 Nov 06:51:26 06:55:10 51° 288° (WNW) 06:58:54 437.200
XW-2C 19 Nov 06:52:53 06:56:35 53° 287° (WNW) 07:00:18 145.795 - 145.815
NUDT-PHONESAT 19 Nov 06:54:19 06:58:02 73° 285° (WNW) 07:01:44 437.300
SO-50 19 Nov 06:57:10 07:01:48 90° 13° (NNE) 07:06:31 436.795
XW-2F 19 Nov 07:06:16 07:09:50 40° 289° (WNW) 07:13:23 145.980 - 146.000
AO-85 19 Nov 07:08:38 07:11:37 20° 327° (NNW) 07:14:44 145.980
HO-68 19 Nov 07:16:48 07:23:55 59° 102° (ESE) 07:30:59 435.675
DOVE 4 19 Nov 07:22:34 07:24:59 13° 306° (NW) 07:27:22 437.250
ZACube-1 19 Nov 07:24:23 07:26:38 14° 89° (E) 07:28:54 437.345
XW-2A 19 Nov 07:25:30 07:28:10 21° 95° (E) 07:30:48 145.665 - 145.685
UWE-3 19 Nov 07:27:00 07:30:35 27° 94° (E) 07:34:08 435.000/436.395/437.385
CUTE 1.7 + AOD 2 19 Nov 07:31:52 07:36:10 89° 288° (WNW) 07:40:26 437.475
PCSat 19 Nov 07:34:51 07:38:19 17° 28° (NNE) 07:41:47 145.827
KAITUO 1B 19 Nov 07:39:19 07:42:18 23° 294° (WNW) 07:45:18 145.475/437.950
XW-2D 19 Nov 07:47:59 07:50:10 15° 298° (WNW) 07:52:22 145.860 - 145.880
CUBEBUG 2 19 Nov 08:00:34 08:04:47 77° 285° (WNW) 08:08:55 437.445
UNISAT 6 19 Nov 08:01:33 08:05:00 22° 63° (ENE) 08:08:26 437.425
XW-2B 19 Nov 08:03:34 08:04:46 11° 300° (WNW) 08:05:58 145.730 - 145.750
TIGRISAT 19 Nov 08:06:35 08:10:06 22° 63° (ENE) 08:13:34 435.000
SEEDS 19 Nov 08:07:42 08:11:53 61° 287° (WNW) 08:16:05 437.485
AO-73 19 Nov 08:15:50 08:19:46 42° 98° (E) 08:23:43 145.935
PRISM 19 Nov 08:16:07 08:17:24 11° 57° (ENE) 08:18:41 437.425
YUBILEINY 19 Nov 08:18:15 08:25:01 24° 302° (WNW) 08:31:53 435.215
FO-29 19 Nov 08:19:07 08:25:41 69° 259° (W) 08:33:07 435.910
AAUSAT CUBESAT 2 19 Nov 08:22:32 08:26:45 89° 117° (ESE) 08:30:57 437.432
CUTE-I 19 Nov 08:29:34 08:33:07 18° 304° (WNW) 08:36:40 437.470
STRAND 1 19 Nov 08:29:41 08:32:02 13° 273° (W) 08:34:25 437.568
Oscar 11 19 Nov 08:35:10 08:39:22 47° 99° (E) 08:43:32 .
SO-50 19 Nov 08:39:17 08:41:37 14° 250° (WSW) 08:43:58 436.795
XW-2A 19 Nov 08:58:02 09:00:50 25° 291° (WNW) 09:03:38 145.665 - 145.685
ZACube-1 19 Nov 08:59:14 09:03:20 59° 287° (WNW) 09:07:24 437.345
UWE-3 19 Nov 09:03:24 09:07:03 30° 293° (WNW) 09:10:41 435.000/436.395/437.385
HO-68 19 Nov 09:05:01 09:11:20 34° 302° (WNW) 09:17:37 435.675
CUTE 1.7 + AOD 2 19 Nov 09:09:47 09:11:19 12° 302° (WNW) 09:12:51 437.475
PCSat 19 Nov 09:17:32 09:22:55 57° 51° (NE) 09:28:14 145.827
DELFI C3 19 Nov 09:17:53 09:21:25 29° 95° (E) 09:24:55 145.870
Max Valier Satellite 19 Nov 09:22:09 09:25:03 22° 94° (E) 09:27:56 145.860
EO-88 19 Nov 09:26:52 09:29:23 17° 92° (E) 09:31:54 145.990 - 145.960
UNISAT 6 19 Nov 09:36:59 09:41:26 49° 261° (W) 09:45:49 437.425
TIGRISAT 19 Nov 09:42:05 09:46:31 47° 261° (W) 09:50:53 435.000
PRISM 19 Nov 09:47:52 09:51:58 88° 76° (ENE) 09:56:10 437.425
AIST 2D 19 Nov 09:52:28 09:55:23 26° 68° (ENE) 09:58:19 435.315
AO-73 19 Nov 09:52:40 09:55:46 21° 296° (WNW) 09:58:51 145.935
DUCHIFAT 1 19 Nov 09:55:10 09:56:37 12° 57° (ENE) 09:58:03 145.980
EO-79 19 Nov 09:58:02 10:00:33 16° 60° (ENE) 10:03:05 145.935-145.965
AAUSAT CUBESAT 2 19 Nov 10:00:04 10:01:32 12° 302° (WNW) 10:03:01 437.432
BEESAT 3 19 Nov 10:01:24 10:03:39 14° 29° (NNE) 10:05:53 437.485
NANOSAT C BR1 19 Nov 10:03:02 10:05:32 16° 60° (ENE) 10:08:03 145.865
FO-29 19 Nov 10:09:06 10:12:17 14° 281° (W) 10:15:37 435.910
POLYITAN 1 19 Nov 10:11:52 10:15:01 21° 63° (ENE) 10:18:11 437.675
Oscar 11 19 Nov 10:11:59 10:15:12 21° 297° (WNW) 10:18:25 .
QB50P2 19 Nov 10:34:04 10:37:57 36° 68° (ENE) 10:41:51 145.880/145.840
AO-85 19 Nov 10:35:04 10:36:15 11° 18° (NNE) 10:37:28 145.980
DELFI C3 19 Nov 10:52:40 10:56:05 27° 293° (WNW) 10:59:30 145.870
Max Valier Satellite 19 Nov 10:55:40 10:58:55 30° 291° (WNW) 11:02:09 145.860
BUGSAT 1 19 Nov 10:57:00 10:59:04 13° 59° (ENE) 11:01:06 437.445
EO-88 19 Nov 10:59:46 11:03:10 37° 290° (WNW) 11:06:33 145.990 - 145.960
ESTCUBE 1 19 Nov 11:00:21 11:04:02 24° 93° (E) 11:07:42 437.505/2401.250
PCSat 19 Nov 11:01:30 11:05:57 26° 251° (WSW) 11:10:23 145.827
BEESAT 2 19 Nov 11:06:25 11:09:12 18° 32° (NNE) 11:11:59 435.950
AIST 2D 19 Nov 11:25:46 11:28:32 22° 266° (W) 11:31:20 435.315
DUCHIFAT 1 19 Nov 11:27:22 11:31:36 89° 76° (ENE) 11:35:51 145.980
EO-79 19 Nov 11:31:36 11:35:50 65° 258° (WSW) 11:40:04 145.935-145.965
LO-87 19 Nov 11:32:00 11:35:33 69° 102° (ESE) 11:39:04 145.935 - 145.965
NANOSAT C BR1 19 Nov 11:36:33 11:40:46 65° 259° (W) 11:44:59 145.865
BEESAT 3 19 Nov 11:37:58 11:41:57 67° 50° (NE) 11:45:50 437.485
POLYITAN 1 19 Nov 11:46:25 11:50:31 46° 261° (W) 11:54:37 437.675
AO-7 19 Nov 11:50:18 11:54:22 15° 35° (NE) 11:58:27 .
Oscar 19 19 Nov 11:52:23 11:56:47 30° 64° (ENE) 12:01:13 437.125/150
Gurwin Techsat 1B 19 Nov 11:58:13 12:02:35 26° 61° (ENE) 12:06:57 435.225
FALCONSAT 3 19 Nov 12:02:45 12:03:46 11° 171° (S) 12:04:47 435.103
QB50P2 19 Nov 12:10:19 12:13:49 25° 266° (W) 12:17:19 145.880/145.840
AO-85 19 Nov 12:13:59 12:18:02 31° 40° (NE) 12:22:21 145.980
M-CUBED/EXP-1 PRIME 19 Nov 12:27:25 12:29:46 16° 54° (NE) 12:32:13 437.505
BUGSAT 1 19 Nov 12:29:38 12:33:51 76° 257° (WSW) 12:38:03 437.445
ESTCUBE 1 19 Nov 12:36:43 12:40:59 41° 291° (WNW) 12:45:14 437.505/2401.250
BEESAT 2 19 Nov 12:43:27 12:47:31 90° 62° (ENE) 12:51:30 435.950
SPROUT 19 Nov 12:47:33 12:51:50 74° 104° (ESE) 12:56:03 437.525
LO-87 19 Nov 13:07:30 13:08:26 11° 300° (WNW) 13:09:21 145.935 - 145.965
VELOX 1 19 Nov 13:07:34 13:12:03 75° 102° (ESE) 13:16:31 145.980
O/OREOS (USA 219) 19 Nov 13:08:35 13:11:50 19° 101° (E) 13:15:05 437.305
UKube-1 19 Nov 13:13:21 13:15:37 14° 89° (E) 13:17:54 .
BEESAT 3 19 Nov 13:16:46 13:18:59 15° 249° (WSW) 13:21:10 437.485
Oscar 19 19 Nov 13:31:08 13:35:58 41° 262° (W) 13:40:50 437.125/150
Gurwin Techsat 1B 19 Nov 13:37:03 13:42:14 52° 260° (W) 13:47:27 435.225
AO-7 19 Nov 13:37:23 13:45:09 47° 58° (ENE) 13:52:57 .
ITAMSAT 1 19 Nov 13:40:17 13:44:10 22° 59° (ENE) 13:48:04 435.822/435.867
FALCONSAT 3 19 Nov 13:40:35 13:41:57 12° 186° (S) 13:43:19 435.103
AO-85 19 Nov 13:54:08 13:58:38 50° 238° (WSW) 14:03:28 145.980
M-CUBED/EXP-1 PRIME 19 Nov 14:00:18 14:03:45 51° 255° (WSW) 14:07:29 437.505
DX 1 19 Nov 14:00:38 14:05:01 64° 103° (ESE) 14:09:21 434.975-435.025
50 SAT 19 Nov 14:00:56 14:04:12 83° 104° (ESE) 14:07:25 437.505
BEESAT 2 19 Nov 14:23:29 14:24:33 11° 251° (WSW) 14:25:37 435.950
SPROUT 19 Nov 14:24:55 14:27:09 14° 301° (WNW) 14:29:22 437.525
YUBILEINY 19 Nov 14:29:12 14:33:31 14° 47° (NE) 14:37:49 435.215
VELOX 1 19 Nov 14:45:23 14:47:56 15° 302° (WNW) 14:50:29 145.980
O/OREOS (USA 219) 19 Nov 14:46:18 14:50:49 55° 299° (WNW) 14:55:23 437.305
UKube-1 19 Nov 14:47:47 14:52:06 67° 287° (WNW) 14:56:24 .
BEESAT 19 Nov 14:49:37 14:53:14 21° 92° (E) 14:56:51 436.000
ITUPSAT 1 19 Nov 14:57:31 15:01:25 25° 94° (E) 15:05:17 437.325
DOVE 4 19 Nov 15:14:35 15:18:38 25° 62° (ENE) 15:22:50 437.250
ITAMSAT 1 19 Nov 15:17:58 15:23:10 65° 258° (WSW) 15:28:24 435.822/435.867
AO-7 19 Nov 15:29:59 15:37:54 49° 259° (W) 15:45:56 .
MOZHAYETS 4 19 Nov 15:31:25 15:35:59 68° 102° (ESE) 15:40:32
CUBESAT XI-V 19 Nov 15:37:25 15:41:00 21° 92° (E) 15:44:34 437.345
DX 1 19 Nov 15:37:55 15:40:43 17° 301° (WNW) 15:43:32 434.975-435.025
LilacSat-2 19 Nov 16:04:20 16:05:59 13° 61° (ENE) 16:07:37 437.200
HO-68 19 Nov 16:05:12 16:09:13 16° 45° (NE) 16:13:15 435.675
XW-2C 19 Nov 16:05:26 16:06:52 12° 60° (ENE) 16:08:17 145.795 - 145.815
NO-84 19 Nov 16:10:15 16:13:50 41° 137° (SE) 16:17:40 435.350 FM
XW-2F 19 Nov 16:17:29 16:19:36 15° 62° (ENE) 16:21:44 145.980 - 146.000
YUBILEINY 19 Nov 16:24:07 16:32:49 55° 73° (ENE) 16:41:26 435.215
BEESAT 19 Nov 16:26:41 16:31:17 51° 291° (WNW) 16:35:53 436.000
O/OREOS (USA 219) 19 Nov 16:30:05 16:31:18 11° 321° (NW) 16:32:32 437.305
CUTE-I 19 Nov 16:34:36 16:39:12 30° 62° (ENE) 16:43:50 437.470
ITUPSAT 1 19 Nov 16:34:54 16:39:26 44° 292° (WNW) 16:43:55 437.325
RS-15 19 Nov 16:46:31 16:49:40 11° 90° (E) 16:52:49 29.354- 29.394
KAITUO 1B 19 Nov 16:48:16 16:51:15 24° 67° (ENE) 16:54:16 145.475/437.950
DOVE 4 19 Nov 16:51:02 16:55:56 54° 262° (W) 17:01:05 437.250
CUTE 1.7 + AOD 2 19 Nov 16:54:38 16:56:19 12° 58° (ENE) 16:58:01 437.475
XW-2D 19 Nov 16:56:48 17:00:19 41° 71° (ENE) 17:03:52 145.860 - 145.880
MOZHAYETS 4 19 Nov 17:09:46 17:12:39 17° 300° (WNW) 17:15:31
XW-2B 19 Nov 17:11:23 17:15:02 58° 73° (ENE) 17:18:44 145.730 - 145.750
CUBESAT XI-V 19 Nov 17:14:06 17:18:38 49° 289° (WNW) 17:23:08 437.345
CUBEBUG 2 19 Nov 17:26:36 17:29:34 17° 61° (ENE) 17:32:28 437.445
SEEDS 19 Nov 17:28:22 17:31:00 16° 61° (ENE) 17:33:38 437.485
NUDT-PHONESAT 19 Nov 17:35:59 17:39:38 80° 75° (ENE) 17:43:18 437.300
LilacSat-2 19 Nov 17:36:01 17:39:44 66° 259° (WSW) 17:43:31 437.200
XW-2C 19 Nov 17:36:48 17:40:31 69° 259° (W) 17:44:16 145.795 - 145.815
KKS-1 19 Nov 17:39:23 17:43:54 77° 104° (ESE) 17:48:21 437.445
AAUSAT CUBESAT 2 19 Nov 17:43:32 17:44:40 11° 58° (ENE) 17:45:50 437.432
NO-84 19 Nov 17:47:21 17:51:10 48° 338° (NNW) 17:55:14 435.350 FM
HO-68 19 Nov 17:48:32 17:55:35 61° 66° (ENE) 18:02:40 435.675
XW-2F 19 Nov 17:49:41 17:53:19 52° 260° (W) 17:56:59 145.980 - 146.000
XW-2A 19 Nov 18:00:35 18:02:18 14° 63° (ENE) 18:04:03 145.665 - 145.685
STARS 19 Nov 18:09:52 18:14:16 66° 103° (ESE) 18:18:37 437.465
CUTE-I 19 Nov 18:13:55 18:19:03 46° 261° (W) 18:24:15 437.470
YUBILEINY 19 Nov 18:21:23 18:29:20 39° 275° (W) 18:37:15 435.215
KAITUO 1B 19 Nov 18:21:55 18:25:08 28° 265° (W) 18:28:22 145.475/437.950
ZACube-1 19 Nov 18:23:06 18:26:07 19° 63° (ENE) 18:29:06 437.345
UWE-3 19 Nov 18:26:42 18:30:45 35° 69° (ENE) 18:34:43 435.000/436.395/437.385
CUTE 1.7 + AOD 2 19 Nov 18:27:19 18:31:31 85° 257° (WSW) 18:35:46 437.475
XW-2D 19 Nov 18:32:13 18:34:42 17° 269° (W) 18:37:11 145.860 - 145.880
RS-15 19 Nov 18:47:20 18:58:59 52° 113° (ESE) 19:10:33 29.354- 29.394
XW-2B 19 Nov 18:48:01 18:49:35 12° 271° (W) 18:51:10 145.730 - 145.750
STRAND 1 19 Nov 18:54:33 18:58:42 24° 93° (E) 19:02:48 437.568
CUBEBUG 2 19 Nov 19:01:10 19:05:44 65° 259° (W) 19:10:12 437.445
SEEDS 19 Nov 19:02:08 19:06:15 58° 260° (W) 19:10:23 437.485
AO-73 19 Nov 19:14:04 19:18:14 50° 72° (ENE) 19:22:20 145.935
AAUSAT CUBESAT 2 19 Nov 19:15:18 19:19:25 88° 77° (ENE) 19:23:36 437.432
KKS-1 19 Nov 19:17:22 19:19:51 15° 302° (WNW) 19:22:21 437.445
NO-84 19 Nov 19:25:35 19:29:14 30° 359° (N) 19:33:00 435.350 FM
FO-29 19 Nov 19:25:44 19:31:21 21° 85° (E) 19:36:47 435.910
XW-2A 19 Nov 19:31:28 19:34:40 43° 261° (W) 19:37:52 145.665 - 145.685
Oscar 11 19 Nov 19:32:50 19:37:01 54° 72° (ENE) 19:41:14 .
HO-68 19 Nov 19:37:30 19:43:43 31° 266° (W) 19:50:00 435.675
STARS 19 Nov 19:47:22 19:50:07 16° 301° (WNW) 19:52:50 437.465
ZACube-1 19 Nov 19:57:50 20:02:04 52° 260° (W) 20:06:15 437.345
UWE-3 19 Nov 20:03:28 20:07:15 27° 266° (W) 20:10:59 435.000/436.395/437.385
Max Valier Satellite 19 Nov 20:04:31 20:06:57 17° 64° (ENE) 20:09:23 145.860
DELFI C3 19 Nov 20:06:10 20:09:31 26° 67° (ENE) 20:12:54 145.870
EO-88 19 Nov 20:08:19 20:10:13 14° 62° (ENE) 20:12:06 145.990 - 145.960
STRAND 1 19 Nov 20:33:12 20:38:09 50° 291° (WNW) 20:43:04 437.568
AO-73 19 Nov 20:51:48 20:54:44 18° 269° (W) 20:57:40 145.935
RS-15 19 Nov 20:59:09 21:11:24 63° 318° (NW) 21:23:29 29.354- 29.394
NO-84 19 Nov 21:03:18 21:07:21 43° 20° (NNE) 21:11:26 435.350 FM
FO-29 19 Nov 21:09:27 21:17:25 86° 105° (ESE) 21:25:01 435.910
Oscar 11 19 Nov 21:10:41 21:13:29 17° 270° (W) 21:16:18 .
SO-50 19 Nov 21:17:30 21:19:07 12° 108° (ESE) 21:20:43 436.795
ISS 19 Nov 21:17:54 21:19:51 15° 136° (SE) 21:21:48 437.550
UNISAT 6 19 Nov 21:25:25 21:29:02 26° 94° (E) 21:32:36 437.425
TIGRISAT 19 Nov 21:30:19 21:33:57 26° 94° (E) 21:37:32 435.000
O/OREOS (USA 219) 19 Nov 21:36:04 21:37:52 12° 40° (NE) 21:39:41 437.305
Max Valier Satellite 19 Nov 21:37:01 21:40:29 41° 262° (W) 21:43:58 145.860
EO-88 19 Nov 21:39:53 21:43:26 53° 260° (W) 21:47:00 145.990 - 145.960
DELFI C3 19 Nov 21:40:41 21:44:10 29° 264° (W) 21:47:43 145.870
ESTCUBE 1 19 Nov 22:02:51 22:06:50 32° 67° (ENE) 22:10:51 437.505/2401.250
LO-87 19 Nov 22:10:39 22:14:06 44° 72° (ENE) 22:17:34 145.935 - 145.965
SPROUT 19 Nov 22:11:16 22:12:37 11° 57° (ENE) 22:14:00 437.525
nSIGHT-1 19 Nov 22:14:59 22:18:06 48° 149° (SSE) 22:21:14 .
VELOX 1 19 Nov 22:33:59 22:36:15 14° 57° (ENE) 22:38:30 145.980
NO-84 19 Nov 22:40:41 22:44:53 58° 219° (SW) 22:49:04 435.350 FM
AIST 2D 19 Nov 22:46:45 22:49:25 20° 93° (E) 22:52:05 435.315
ISS 19 Nov 22:52:37 22:55:53 78° 153° (SSE) 22:59:10 437.550
SO-50 19 Nov 22:54:20 22:58:49 85° 126° (SE) 23:03:22 436.795
FO-29 19 Nov 22:55:19 23:01:32 27° 305° (NW) 23:07:38 435.910
PRISM 19 Nov 23:00:41 23:04:53 89° 88° (E) 23:09:03 437.425
UNISAT 6 19 Nov 23:01:55 23:05:49 34° 292° (WNW) 23:09:40 437.425
TIGRISAT 19 Nov 23:06:50 23:10:42 33° 293° (WNW) 23:14:31 435.000
DUCHIFAT 1 19 Nov 23:10:13 23:11:17 11° 87° (E) 23:12:20 145.980
O/OREOS (USA 219) 19 Nov 23:13:41 23:18:15 65° 62° (ENE) 23:22:44 437.305
EO-79 19 Nov 23:13:48 23:16:24 16° 90° (E) 23:18:57 145.935-145.965
RS-15 19 Nov 23:15:45 23:26:48 36° 349° (N) 23:37:33 29.354- 29.394
NANOSAT C BR1 19 Nov 23:18:23 23:20:56 16° 90° (E) 23:23:28 145.865
DX 1 19 Nov 23:26:17 23:27:53 12° 56° (NE) 23:29:29 434.975-435.025
POLYITAN 1 19 Nov 23:28:03 23:31:19 22° 93° (E) 23:34:34 437.675
ESTCUBE 1 19 Nov 23:39:41 23:43:38 30° 265° (W) 23:47:36 437.505/2401.250
SPROUT 19 Nov 23:43:31 23:47:49 85° 72° (ENE) 23:52:07 437.525
LO-87 19 Nov 23:45:40 23:47:44 15° 269° (W) 23:49:50 145.935 - 145.965
QB50P2 19 Nov 23:50:43 23:54:42 40° 98° (E) 23:58:40 145.880/145.840
nSIGHT-1 19 Nov 23:51:14 23:54:22 48° 347° (NNW) 23:57:31 .
PCSat 20 Nov 00:03:29 00:07:47 25° 109° (ESE) 00:12:05 145.827
VELOX 1 20 Nov 00:07:36 00:12:03 83° 256° (WSW) 00:16:33 145.980
BUGSAT 1 20 Nov 00:09:55 00:11:21 12° 88° (E) 00:12:48 437.445
UKube-1 20 Nov 00:10:35 00:13:41 20° 61° (ENE) 00:16:48 .
AIST 2D 20 Nov 00:19:31 00:22:38 30° 291° (WNW) 00:25:45 435.315
NO-84 20 Nov 00:20:16 00:21:30 11° 236° (WSW) 00:22:43 435.350 FM
ISS 20 Nov 00:29:25 00:32:32 42° 353° (N) 00:35:41 437.550
50 SAT 20 Nov 00:30:54 00:33:58 41° 71° (ENE) 00:37:04 437.505
SO-50 20 Nov 00:36:24 00:39:51 21° 328° (NNW) 00:43:21 436.795
PRISM 20 Nov 00:37:59 00:39:29 12° 303° (WNW) 00:41:00 437.425
DUCHIFAT 1 20 Nov 00:43:18 00:47:29 80° 287° (WNW) 00:51:38 145.980
EO-79 20 Nov 00:48:23 00:52:30 55° 288° (WNW) 00:56:36 145.935-145.965
NANOSAT C BR1 20 Nov 00:52:53 00:57:00 56° 288° (WNW) 01:01:04 145.865
O/OREOS (USA 219) 20 Nov 00:54:22 00:57:08 16° 261° (W) 00:59:51 437.305
DX 1 20 Nov 00:58:58 01:03:20 84° 76° (ENE) 01:07:45 434.975-435.025
MOZHAYETS 4 20 Nov 01:02:02 01:04:19 14° 57° (ENE) 01:06:35
POLYITAN 1 20 Nov 01:03:19 01:07:15 39° 291° (WNW) 01:11:09 437.675
SPROUT 20 Nov 01:23:14 01:24:17 11° 273° (W) 01:25:20 437.525
QB50P2 20 Nov 01:26:59 01:30:16 22° 296° (WNW) 01:33:32 145.880/145.840
nSIGHT-1 20 Nov 01:27:54 01:30:58 42° 7° (N) 01:34:03 .
